Overview Statistics Trail Chart Weather Telemetry Raw packets
 

This is the latest recevied weather packets stored in our database for station/object 4S6DRJ-13. If no packets are shown the sender has not sent any weather packets the latest 10 day(s).

<< 23 24 25 26 27 28 29 >>
Time Temp. Humidity Pressure Rain* Wind** Luminosity Snow
1788410033 30.56° C 73% 1010.4 hPa 0 mm 2.68 m/s, 245° 850 W/m² -
1788409972 30.56° C 73% 1010.3 hPa 0 mm 2.68 m/s, 288° 276 W/m² -
1788409911 30.56° C 73% 1010.4 hPa 0 mm 1.79 m/s, 153° 871 W/m² -
1788409850 30.56° C 73% 1010.3 hPa 0 mm 1.34 m/s, 79° 1104 W/m² -
1788409789 30.56° C 74% 1010.4 hPa 0 mm 1.34 m/s, 3° 964 W/m² -
1788409728 30.56° C 74% 1010.2 hPa 0 mm 0.89 m/s, 283° 982 W/m² -
1788409667 30.56° C 74% 1010.5 hPa 0 mm 2.68 m/s, 255° 1102 W/m² -
1788409606 30.56° C 75% 1010.2 hPa 0 mm 0 m/s 1103 W/m² -
1788409545 30° C 75% 1010.3 hPa 0 mm 0.89 m/s, 135° 1102 W/m² -
1788409484 30° C 76% 1010.5 hPa 0 mm 0.89 m/s, 250° 793 W/m² -
1788409423 30° C 75% 1010.3 hPa 0 mm 0.45 m/s, 209° 919 W/m² -
1788409362 30° C 75% 1010.3 hPa 0 mm 1.34 m/s, 299° 370 W/m² -
1788409301 30° C 75% 1010.5 hPa 0 mm 1.34 m/s, 199° 1113 W/m² -
1788409240 30.56° C 74% 1010.5 hPa 0 mm 2.24 m/s, 114° 622 W/m² -
1788409178 30.56° C 74% 1010.5 hPa 0 mm 1.34 m/s, 202° 398 W/m² -
1788409117 30.56° C 74% 1010.3 hPa 0 mm 1.79 m/s, 274° 432 W/m² -
1788409057 30.56° C 74% 1010.4 hPa 0 mm 1.79 m/s, 257° 453 W/m² -
1788408996 30° C 75% 1010.6 hPa 0 mm 0.45 m/s, 281° 610 W/m² -
1788408935 30° C 75% 1010.3 hPa 0 mm 0.45 m/s, 211° 772 W/m² -
1788408874 30° C 75% 1010.6 hPa 0 mm 1.79 m/s, 236° 578 W/m² -
1788408812 30° C 76% 1010.6 hPa 0 mm 0.45 m/s, 112° 693 W/m² -
1788408751 30° C 75% 1010.4 hPa 0 mm 1.79 m/s, 203° 409 W/m² -
1788408691 30.56° C 74% 1010.6 hPa 0 mm 1.34 m/s, 147° 489 W/m² -
1788408629 30.56° C 74% 1010.5 hPa 0 mm 4.02 m/s, 249° 582 W/m² -
1788408568 30.56° C 74% 1010.5 hPa 0 mm 1.79 m/s, 286° 498 W/m² -

* Rain latest hour (hover to see other rain measurements)
** Current wind speed in m/s (hover to see current wind gust speed)